Eddersheim, Germany

10:55 PM CEST on August 21, 2017 (GMT +0200)
Eddersheim

Weather History for 10637 - December, 2013

Change the Weather History Date:

Saturday, December 14, 2013

  Actual Average Record
Temperature  
Mean Temperature 36 °F -  
Max Temperature 41 °F 39 °F - ()
Min Temperature 31 °F 30 °F - ()
Degree Days  
Heating Degree Days 29    
Moisture  
Dew Point 35 °F    
Average Humidity 98    
Maximum Humidity 100    
Minimum Humidity 87    
Precipitation  
Precipitation 0.04 in - - ()
Sea Level Pressure  
Sea Level Pressure 30.39 in    
Wind  
Wind Speed 7 mph ()    
Max Wind Speed 11 mph    
Max Gust Speed 20 mph    
Visibility 2.7 miles    
Events Fog , Rain , Snow    
T = Trace of Precipitation, MM = Missing Value Source: Averaged Metar Reports

Daily Weather History Graph

Daily Weather History Graph

Search for Another Location

Airport or City:

Trip Planner

Search our weather history database for the weather conditions in past years. The results will help you decide how hot, cold, wet, or windy it might be!

Date:

Astronomy

Dec. 14, 2013 Rise Set
Actual Time 8:16 AM CET 4:23 PM CET
Civil Twilight 7:38 AM CET 5:02 PM CET
Nautical Twilight 6:57 AM CET 5:43 PM CET
Astronomical Twilight 6:17 AM CET 6:22 PM CET
Moon 2:45 PM CET (12/14) 5:09 AM CET (12/14)
Length of Visible Light 9h 23m
Length of Day
8h 06m
Waxing Gibbous, 92% of the Moon is Illuminated
Dec 14
Waxing Gibbous
Dec 17
Full
Dec 25
Last Quarter
Jan 1
New
Jan 8
First Quarter

Hourly Weather History & Observations

Time (CET) Temp. Windchill Dew Point Humidity Pressure Visibility Wind Dir Wind Speed Gust Speed Precip Events Conditions
12:00 AM 33 °F - 32 °F 96% 30.33 in 1 mi South 4.5 mph - - Fog Partial Fog
12:20 AM 33.8 °F 28.6 °F 33.8 °F 100% 30.30 in 0.6 mi South 5.8 mph - N/A Fog Fog
12:50 AM 32.0 °F 25.6 °F 32.0 °F 100% 30.30 in 0.7 mi South 6.9 mph - N/A   Overcast
1:00 AM 33 °F - 32 °F 96% 30.32 in 1 mi South 6.7 mph - - Fog Light Fog
1:20 AM 32.0 °F 23.6 °F 32.0 °F 100% 30.30 in 0.7 mi SSW 10.4 mph - N/A   Overcast
1:50 AM 32.0 °F 24.8 °F 32.0 °F 100% 30.30 in 0.5 mi SSW 8.1 mph - N/A Fog Fog
2:00 AM 32 °F - 32 °F 100% 30.33 in 0 mi SSW 8.9 mph - - Fog Partial Fog
2:20 AM 32.0 °F 26.4 °F 32.0 °F 100% 30.30 in 0.5 mi South 5.8 mph - N/A Fog Fog
2:50 AM 32.0 °F 24.8 °F 32.0 °F 100% 30.30 in 0.6 mi SSW 8.1 mph - N/A Fog Fog
3:00 AM 33 °F - 32 °F 95% 30.33 in 1 mi SSW 6.7 mph - - Fog Partial Fog
3:20 AM 32.0 °F 24.2 °F 32.0 °F 100% 30.30 in 0.8 mi SSW 9.2 mph - N/A   Overcast
3:50 AM 32.0 °F 24.2 °F 32.0 °F 100% 30.30 in 0.9 mi SSW 9.2 mph - N/A   Overcast
4:20 AM 32.0 °F 24.2 °F 32.0 °F 100% 30.30 in 1.1 mi SSW 9.2 mph - N/A   Overcast
4:50 AM 32.0 °F 23.6 °F 32.0 °F 100% 30.30 in 1.2 mi SSW 10.4 mph - N/A   Overcast
5:00 AM 32 °F - 32 °F 98% 30.34 in 1 mi SSW 8.9 mph - - Rain Light Drizzle
5:20 AM 32.0 °F 24.8 °F 32.0 °F 100% 30.30 in 1.1 mi South 8.1 mph - N/A   Overcast
5:50 AM 32.0 °F 25.6 °F 32.0 °F 100% 30.30 in 1.1 mi South 6.9 mph 19.6 mph N/A   Overcast
6:00 AM 32 °F - 31 °F 97% 30.32 in 1 mi South 6.7 mph - - Rain Light Drizzle
6:20 AM 32.0 °F 24.8 °F 32.0 °F 100% 30.30 in 1.6 mi South 8.1 mph - N/A   Light Drizzle
6:50 AM 32.0 °F 24.2 °F 32.0 °F 100% 30.30 in 1.6 mi South 9.2 mph - N/A   Overcast
7:00 AM 32 °F - 31 °F 95% 30.34 in 2 mi South 8.9 mph - - Rain Light Drizzle
7:20 AM 32.0 °F 24.8 °F 32.0 °F 100% 30.30 in 1.7 mi South 8.1 mph - N/A   Overcast
7:50 AM 32.0 °F 25.6 °F 32.0 °F 100% 30.33 in 1.7 mi SSW 6.9 mph - N/A   Overcast
8:00 AM 32 °F - 31 °F 97% 30.36 in 2 mi SSW 6.7 mph - - Rain Light Drizzle
8:20 AM 32.0 °F 24.8 °F 32.0 °F 100% 30.33 in 1.7 mi SSW 8.1 mph - N/A   Light Drizzle
8:50 AM 32.0 °F 25.6 °F 32.0 °F 100% 30.33 in 1.7 mi SSW 6.9 mph - N/A   Drizzle
9:00 AM 33 °F - 32 °F 92% 30.36 in 2 mi SSW 6.7 mph - - Rain Light Freezing Drizzle
9:20 AM 32.0 °F 24.2 °F 32.0 °F 100% 30.33 in 1.5 mi SSW 9.2 mph - N/A Rain Rain
9:50 AM 32.0 °F 24.8 °F 32.0 °F 100% 30.33 in 1.6 mi SSW 8.1 mph - N/A Snow Light Snow
10:20 AM 33.8 °F 26.4 °F 33.8 °F 100% 30.36 in - SSW 9.2 mph - N/A Rain , Snow Light Rain
10:50 AM 33.8 °F 26.4 °F 33.8 °F 100% 30.36 in - SSW 9.2 mph - N/A Rain , Snow Light Rain
11:00 AM 33 °F - 33 °F 97% 30.39 in 2 mi SSW 8.9 mph - - Snow Light Snow
11:20 AM 33.8 °F 25.8 °F 33.8 °F 100% 30.36 in 1.9 mi SW 10.4 mph - N/A Rain Light Rain
11:50 AM 33.8 °F 25.8 °F 33.8 °F 100% 30.36 in 1.7 mi SSW 10.4 mph - N/A Rain Light Rain
12:00 PM 34 °F - 33 °F 97% 30.40 in 2 mi SSW 11.2 mph - - Rain Light Rain
12:20 PM 35.6 °F 28.6 °F 35.6 °F 100% 30.36 in - SSW 9.2 mph - N/A Rain Light Rain
12:50 PM 35.6 °F 29.9 °F 35.6 °F 100% 30.36 in - SSW 6.9 mph - N/A Rain Light Rain
1:00 PM 36 °F - 35 °F 93% 30.40 in 2 mi SSW 6.7 mph - - Rain Light Rain
1:20 PM 35.6 °F 28.6 °F 35.6 °F 100% 30.36 in 1.7 mi SSW 9.2 mph - N/A Rain Light Rain
1:50 PM 37.4 °F 31.4 °F 37.4 °F 100% 30.36 in 1.8 mi SSW 8.1 mph - N/A Rain Light Rain
2:00 PM 36 °F - 36 °F 98% 30.40 in 2 mi SSW 8.9 mph - - Rain Light Rain
2:20 PM 37.4 °F 30.8 °F 37.4 °F 100% 30.39 in - SSW 9.2 mph - N/A Rain Light Rain
2:50 PM 37.4 °F 31.4 °F 37.4 °F 100% 30.39 in 2.5 mi SSW 8.1 mph - N/A Rain Light Rain
3:00 PM 37 °F - 36 °F 97% 30.41 in 2 mi SSW 8.9 mph - - Rain Light Rain
3:20 PM 37.4 °F 31.4 °F 37.4 °F 100% 30.39 in 3.1 mi SW 8.1 mph - N/A   Mostly Cloudy
3:50 PM 39.2 °F 35.0 °F 39.2 °F 100% 30.42 in 3.1 mi South 5.8 mph - N/A   Mostly Cloudy
4:20 PM 39.2 °F 34.2 °F 39.2 °F 100% 30.42 in 2.8 mi South 6.9 mph - N/A   Mostly Cloudy
4:50 PM 39.2 °F 34.2 °F 39.2 °F 100% 30.45 in 2.8 mi SW 6.9 mph - N/A   Mostly Cloudy
5:00 PM 39 °F - 38 °F 95% 30.46 in 3 mi SW 6.7 mph - -   Mist
5:20 PM 39.2 °F 35.0 °F 39.2 °F 100% 30.45 in 2.8 mi SSW 5.8 mph - N/A   Mostly Cloudy
5:50 PM 41.0 °F 36.4 °F 41.0 °F 100% 30.45 in 3.7 mi SSW 6.9 mph - N/A   Mostly Cloudy
6:00 PM 40 °F - 39 °F 96% 30.48 in 4 mi SSW 6.7 mph - -   Mist
6:20 PM 41.0 °F 35.8 °F 41.0 °F 100% 30.45 in 5.6 mi South 8.1 mph - N/A   Mostly Cloudy
6:50 PM 41.0 °F 34.7 °F 41.0 °F 100% 30.45 in 6.2 mi South 10.4 mph - N/A   Mostly Cloudy
7:00 PM 40 °F - 38 °F 91% 30.49 in 7 mi South 8.9 mph - -   Partly Cloudy
7:20 PM 41.0 °F 36.4 °F 41.0 °F 100% 30.48 in 6.2 mi SSW 6.9 mph - N/A   Mostly Cloudy
7:50 PM 39.2 °F 34.2 °F 37.4 °F 93% 30.48 in 6.2 mi SSW 6.9 mph - N/A   Scattered Clouds
8:00 PM 39 °F - 36 °F 87% 30.51 in 7 mi SSW 6.7 mph - -   Partly Cloudy
8:20 PM 39.2 °F 33.6 °F 39.2 °F 100% 30.48 in 6.2 mi SSW 8.1 mph - N/A   Partly Cloudy
8:50 PM 37.4 °F 31.4 °F 37.4 °F 100% 30.51 in 6.2 mi SW 8.1 mph - N/A   Partly Cloudy
9:00 PM 37 °F - 36 °F 92% 30.52 in 11 mi SW 8.9 mph - -   Scattered Clouds
9:20 PM 37.4 °F 33.8 °F 37.4 °F 100% 30.48 in - South 4.6 mph - N/A   Clear
9:50 PM 35.6 °F 30.7 °F 35.6 °F 100% 30.48 in 6.2 mi South 5.8 mph - N/A   Partly Cloudy
10:20 PM 35.6 °F 29.9 °F 35.6 °F 100% 30.48 in 5.0 mi South 6.9 mph - N/A   Scattered Clouds
10:50 PM 35.6 °F 29.9 °F 35.6 °F 100% 30.51 in 3.7 mi SW 6.9 mph - N/A   Scattered Clouds
11:00 PM 35 °F - 34 °F 93% 30.53 in 4 mi SW 6.7 mph - -   Mist
11:20 PM 35.6 °F 29.2 °F 35.6 °F 100% 30.51 in 3.1 mi SSW 8.1 mph - N/A   Mostly Cloudy
11:50 PM 37.4 °F 31.4 °F 37.4 °F 100% 30.51 in 4.3 mi South 8.1 mph - N/A   Mostly Cloudy